Regional Weather Roundup
Issued by NWS

Home | Current Version | Previous Version | Graphics & Text | Print | Product List | Glossary On
Versions: 1 2 3 4 5 6 7 8 9 10 11 12 13 14 15 16 17 18 19 20 21 22 23 24 25 26 27 28 29 30 31 32 33 34 35 36 37 38 39 40 41 42 43 44 45 46 47 48 49 50
000
ASUS45 KSLC 220610
RWRUT

UTAH REGIONAL WEATHER ROUNDUP
NATIONAL WEATHER SERVICE SALT LAKE CITY UT
1200 AM MDT MON SEP 22 2014

UTZ001>011-023>025-220700-

NORTHERN UTAH

CITY           SKY/WX    TMP DP  RH WIND       PRES   REMARKS
HILL AFB       CLOUDY    59  54  82 E13       30.16S
LOGAN          PTCLDY    52  52 100 CALM      30.15F FOG
OGDEN          MOCLDY    59  56  89 SW5       30.14F
PROVO AIRPORT  MOCLDY    59  54  82 SE9       30.18R
SALT LAKE CITY MOCLDY    62  56  80 CALM      30.14R
VERNAL         PTCLDY    54  51  90 CALM      30.23S
WENDOVER       MOCLDY    59  52  77 NE5       30.15R
HEBER CITY     PTCLDY    50  48  93 CALM      30.22S
WEST JORDAN    CLEAR     61  55  82 CALM      30.16S

$$

UTZ012>022-026-027-220700-

SOUTHERN UTAH

CITY           SKY/WX    TMP DP  RH WIND       PRES   REMARKS
BRYCE CANYON   PTCLDY    47  46  97 SW5       30.33S
CEDAR CITY     PTCLDY    57  54  89 CALM      30.21R
MILFORD        PTCLDY    56  53  90 NW9       30.18F
MOAB/CYNLANDS  MOCLDY    65  57  75 SE3       30.15F
PRICE          CLOUDY    57  52  83 N7        30.24F
ST GEORGE      PTCLDY    70  61  73 SE7       30.05R
KANAB            N/A     63  55  77 NW12      30.20R

$$

REGIONAL REPORTS     COLORADO/ARIZONA

CITY           SKY/WX    TMP DP  RH WIND       PRES   REMARKS
CRAIG, CO      MOCLDY    55  51  86 NE6       30.28F
GRAND JUNCTION CLOUDY    60  57  89 SW7       30.19F
RIFLE          MOCLDY    59  57  93 N5        30.25F
MONTROSE       LGT RAIN  61  57  87 E9        30.30S
CORTEZ         LGT RAIN  61  59  93 NE9       30.28F
PAGE, AZ       CLEAR     71  57  61 SE3       30.12R
GRAND CANYON   CLEAR     46  43  89 CALM      30.30R
KINGMAN        CLEAR     65  37  35 CALM      30.07S
FLAGSTAFF      CLEAR     51  46  83 CALM      30.33S

$$

REGIONAL REPORTS    NEVADA/IDAHO/WYOMING

CITY           SKY/WX    TMP DP  RH WIND       PRES   REMARKS
LAS VEGAS, NV  CLEAR     84  44  24 S8        29.92R
ELY            PTCLDY    48  46  93 S3        30.25S
ELKO           MOCLDY    56  46  69 N5        30.15F
POCATELLO, ID  CLEAR     54  54 100 NE3       30.15S
BURLEY         FOG       53  52  96 CALM      30.10S VSB 3/4
EVANSTON, WY   PTCLDY    47  45  93 SE6       30.29F
ROCK SPRINGS   PTCLDY    51  49  92 W10       30.28R

$$


USA.gov is the U.S. government's official web portal to all federal, state and local government web resources and services.